sat.trackr.live / text

‹ back to catalog

STARLINK-34690

NORAD 64863 · 2025-152X

PAYLOAD ACTIVE UNKNOWN

§ Identity

Operator
Country
US
Launch date
2025-07-19
Launch site
AFWTR
Launch vehicle
Mass (kg)
RCS (m²)

Purposes: comms

External: N2YO · Heavens-Above · Gunter

§ Orbital elements

Epoch: 2026-09-20T20:00:52.213824Z

Period
93.91 min
Inclination
97.2842°
Eccentricity
0.0002287
Mean motion
15.33457073 rev/d
Perigee alt
463.9 km
Apogee alt
467.1 km
Semi-major
6,843.6 km
B*
3.3332e-4
RAAN
114.3732°
Arg perigee
89.2554°
Mean anomaly
270.8950°
Rev number
6,487

§ Raw data

STARLINK-346901 64863U 25152X   26263.83393766  .00010705  00000+0  33332-3 0  99952 64863  97.2842 114.3732 0002287  89.2554 270.8950 15.33457073 64878

JSON: /api/v1/satellites/64863 · /tle

For live sub-satellite position, see the globe view (requires WebGL).

§ Visibility from observer

Set your observer location to see the next 7 days of passes ≥ 10°. The values pass through the URL so the page stays shareable.

No JS? Fill the form by hand. The geolocation button needs JavaScript.